Tillbaka till svenska Fidonet
English   Information   Debug  
FILM   0/18
FNEWS_PUBLISH   4926
FN_SYSOP   42201
FN_SYSOP_OLD1   71952
FTP_FIDO   0/2
FTSC_PUBLIC   0/13972
FUNNY   0/4886
GENEALOGY.EUR   0/71
GET_INFO   105
GOLDED   0/408
HAM   5278/16660
HOLYSMOKE   0/6791
HOT_SITES   0/1
HTMLEDIT   0/71
HUB203   466
HUB_100   264
HUB_400   39
HUMOR   0/29
IC   0/2851
INTERNET   0/424
INTERUSER   0/3
IP_CONNECT   719
JAMNNTPD   0/233
JAMTLAND   0/47
KATTY_KORNER   0/41
LAN   0/16
LINUX-USER   0/19
LINUXHELP   0/1155
LINUX   0/22300
LINUX_BBS   0/957
mail   18.68
mail_fore_ok   249
MENSA   0/341
MODERATOR   0/102
MONTE   0/992
MOSCOW_OKLAHOMA   0/1245
MUFFIN   0/783
MUSIC   0/321
N203_STAT   938
N203_SYSCHAT   313
NET203   321
NET204   69
NET_DEV   0/10
NORD.ADMIN   0/101
NORD.CHAT   0/2572
NORD.FIDONET   189
NORD.HARDWARE   0/28
NORD.KULTUR   0/114
NORD.PROG   0/32
NORD.SOFTWARE   0/88
NORD.TEKNIK   0/58
NORD   0/453
OCCULT_CHAT   0/93
OS2BBS   0/787
OS2DOSBBS   0/580
OS2HW   0/42
OS2INET   0/37
OS2LAN   0/134
OS2PROG   0/36
OS2REXX   0/113
OS2USER-L   207
OS2   0/4830
OSDEBATE   6369/18996
PASCAL   0/490
PERL   0/457
PHP   0/45
POINTS   0/405
POLITICS   0/29554
POL_INC   0/14731
PSION   103
R20_ADMIN   1133
R20_AMATORRADIO   0/2
R20_BEST_OF_FIDONET   16
R20_CHAT   0/896
R20_DEPP   0/3
R20_DEV   400
R20_ECHO2   1830
R20_ECHOPRES   0/35
R20_ESTAT   0/719
R20_FIDONETPROG...
...RAM.MYPOINT
  0/2
R20_FIDONETPROGRAM   0/22
R20_FIDONET   0/248
R20_FILEFIND   0/24
R20_FILEFOUND   0/22
R20_HIFI   0/3
R20_INFO2   3723
R20_INTERNET   0/12940
R20_INTRESSE   0/60
R20_INTR_KOM   0/99
R20_KANDIDAT.CHAT   42
R20_KANDIDAT   28
R20_KOM_DEV   112
R20_KONTROLL   0/13360
R20_KORSET   0/18
R20_LOKALTRAFIK   0/24
R20_MODERATOR   0/1852
R20_NC   76
R20_NET200   245
R20_NETWORK.OTH...
...ERNETS
  0/13
R20_OPERATIVSYS...
...TEM.LINUX
  0/44
R20_PROGRAMVAROR   0/1
R20_REC2NEC   534
R20_SFOSM   0/341
R20_SF   0/108
R20_SPRAK.ENGLISH   0/1
R20_SQUISH   107
R20_TEST   2
R20_WORST_OF_FIDONET   20
RAR   0/9
RA_MULTI   106
RA_UTIL   0/162
REGCON.EUR   0/2068
REGCON   0/13
SCIENCE   0/1206
SF   0/239
SHAREWARE_SUPPORT   0/5146
SHAREWRE   0/14
SIMPSONS   0/169
STATS_OLD1   0/2539.065
STATS_OLD2   0/2530
STATS_OLD3   0/2395.095
STATS_OLD4   0/1692.25
SURVIVOR   0/495
SYSOPS_CORNER   0/3
SYSOP   0/84
TAGLINES   0/112
TEAMOS2   0/4530
TECH   0/2617
TEST.444   0/105
TRAPDOOR   0/19
TREK   0/755
TUB   0/290
UFO   0/40
UNIX   0/1316
USA_EURLINK   0/102
USR_MODEMS   0/1
VATICAN   0/2740
VIETNAM_VETS   0/14
VIRUS   0/378
VIRUS_INFO   0/201
VISUAL_BASIC   0/473
WHITEHOUSE   0/5187
WIN2000   0/101
WIN32   0/30
WIN95   0/4291
WIN95_OLD1   0/70272
WINDOWS   0/1517
WWB_SYSOP   0/419
WWB_TECH   0/810
ZCC-PUBLIC   0/1
ZEC   4

 
4DOS   0/134
ABORTION   0/7
ALASKA_CHAT   0/506
ALLFIX_FILE   0/1313
ALLFIX_FILE_OLD1   0/7997
ALT_DOS   0/152
AMATEUR_RADIO   0/1039
AMIGASALE   0/14
AMIGA   0/331
AMIGA_INT   0/1
AMIGA_PROG   0/20
AMIGA_SYSOP   0/26
ANIME   0/15
ARGUS   0/924
ASCII_ART   0/340
ASIAN_LINK   0/651
ASTRONOMY   0/417
AUDIO   0/92
AUTOMOBILE_RACING   0/105
BABYLON5   0/17862
BAG   135
BATPOWER   0/361
BBBS.ENGLISH   0/382
BBSLAW   0/109
BBS_ADS   0/5290
BBS_INTERNET   0/507
BIBLE   0/3563
BINKD   0/1119
BINKLEY   0/215
BLUEWAVE   0/2173
CABLE_MODEMS   0/25
CBM   0/46
CDRECORD   0/66
CDROM   0/20
CLASSIC_COMPUTER   0/378
COMICS   0/15
CONSPRCY   0/899
COOKING   41444
COOKING_OLD1   0/24719
COOKING_OLD2   0/40862
COOKING_OLD3   0/37489
COOKING_OLD4   0/35496
COOKING_OLD5   9370
C_ECHO   0/189
C_PLUSPLUS   0/31
DIRTY_DOZEN   0/201
DOORGAMES   0/2284
DOS_INTERNET   0/196
duplikat   6102
ECHOLIST   0/18295
EC_SUPPORT   0/318
ELECTRONICS   0/359
ELEKTRONIK.GER   1534
ENET.LINGUISTIC   0/13
ENET.POLITICS   0/4
ENET.SOFT   0/11701
ENET.SYSOP   34296
ENET.TALKS   0/32
ENGLISH_TUTOR   0/2000
EVOLUTION   0/1335
FDECHO   0/217
FDN_ANNOUNCE   0/7068
FIDONEWS   25062
FIDONEWS_OLD1   0/49742
FIDONEWS_OLD2   0/35949
FIDONEWS_OLD3   0/30874
FIDONEWS_OLD4   0/37224
FIDO_SYSOP   12922
FIDO_UTIL   0/180
FILEFIND   0/209
FILEGATE   0/212
Möte HAM, 16660 texter
 lista första sista föregående nästa
Text 3257, 885 rader
Skriven 2009-10-08 23:30:21 av Amsat List (1:323/120.0)
Ärende: [keps]  orb09281.amsa
=============================
[keps]  orb09281.amsa

Return-Path: <keps-bounces@amsat.org>
X-Rcpt: craig.healy@chowda.com
X-UIDL: 1255058249.6335

SB KEPS @ AMSAT  $ORB09281.O
Orbital Elements  09281.OSCAR

HR AMSAT ORBITAL ELEMENTS FOR OSCAR SATELLITES
FROM WA5QGD FORT WORTH,TX October 8, 2009
Send Subscribe/unsubscribe to KEPS at 
http://www.amsat.org/mailman/listinfo/keps
BID: ORB09281.O
TO ALL RADIO AMATEURS BT

Satellite: AO-07
Catalog number: 07530
Epoch time:      09281.65324924
Element set:     599
Inclination:      101.4213 deg
RA of node:       302.1422 deg
Eccentricity:    0.0012073
Arg of perigee:   047.0148 deg
Mean anomaly:     313.1937 deg
Mean motion:   12.53576741 rev/day
Decay rate:       -2.7e-07 rev/day^2
Epoch rev:           59693
Checksum:              284

Satellite: FO-29
Catalog number: 24278
Epoch time:      09280.78069744
Element set:    0161
Inclination:      098.5343 deg
RA of node:       139.5895 deg
Eccentricity:    0.0351283
Arg of perigee:   058.6276 deg
Mean anomaly:     304.8732 deg
Mean motion:   13.52946268 rev/day
Decay rate:       1.09e-06 rev/day^2
Epoch rev:           64897
Checksum:              361

Satellite: SO-33
Catalog number: 25509
Epoch time:      09281.56655611
Element set:     559
Inclination:      031.4339 deg
RA of node:       131.3826 deg
Eccentricity:    0.0354868
Arg of perigee:   249.8241 deg
Mean anomaly:     106.3935 deg
Mean motion:   14.28268026 rev/day
Decay rate:       -5.8e-07 rev/day^2
Epoch rev:           57205
Checksum:              322

Satellite: RS-22
Catalog number: 27939
Epoch time:      09281.50102925
Element set:     908
Inclination:      097.9240 deg
RA of node:       152.1351 deg
Eccentricity:    0.0014229
Arg of perigee:   131.6051 deg
Mean anomaly:     228.6397 deg
Mean motion:   14.63345719 rev/day
Decay rate:        9.6e-07 rev/day^2
Epoch rev:           32214
Checksum:              297

Satellite: VO-52
Catalog number: 28650
Epoch time:      09281.84679507
Element set:     337
Inclination:      097.7293 deg
RA of node:       339.5935 deg
Eccentricity:    0.0027417
Arg of perigee:   021.0026 deg
Mean anomaly:     339.2312 deg
Mean motion:   14.81624974 rev/day
Decay rate:      -1.58e-06 rev/day^2
Epoch rev:           23947
Checksum:              332

/EX
SB KEPS @ AMSAT  $ORB09281.D
Orbital Elements  09281.MICROS

HR AMSAT ORBITAL ELEMENTS FOR THE MICROSATS
FROM WA5QGD FORT WORTH,TX October 8, 2009
Send Subscribe/unsubscribe to KEPS at 
http://www.amsat.org/mailman/listinfo/keps
BID: ORB09281.D
TO ALL RADIO AMATEURS BT

Satellite: AO-16
Catalog number: 20439
Epoch time:      09280.50273428
Element set:     720
Inclination:      098.2936 deg
RA of node:       243.8764 deg
Eccentricity:    0.0010545
Arg of perigee:   192.6028 deg
Mean anomaly:     167.4885 deg
Mean motion:   14.31835169 rev/day
Decay rate:        1.5e-07 rev/day^2
Epoch rev:            2922
Checksum:              310

Satellite: LO-19
Catalog number: 20442
Epoch time:      09281.44966555
Element set:     634
Inclination:      098.2572 deg
RA of node:       251.6053 deg
Eccentricity:    0.0011911
Arg of perigee:   185.4613 deg
Mean anomaly:     174.6489 deg
Mean motion:   14.32069548 rev/day
Decay rate:        8.0e-08 rev/day^2
Epoch rev:            2952
Checksum:              314

Satellite: AO-27
Catalog number: 22825
Epoch time:      09280.50498346
Element set:    0359
Inclination:      098.4497 deg
RA of node:       230.4578 deg
Eccentricity:    0.0007660
Arg of perigee:   296.8589 deg
Mean anomaly:     063.1793 deg
Mean motion:   14.29274332 rev/day
Decay rate:       -7.2e-07 rev/day^2
Epoch rev:           83595
Checksum:              356

Satellite: IO-26
Catalog number: 22826
Epoch time:      09281.52527503
Element set:      88
Inclination:      098.4429 deg
RA of node:       232.1486 deg
Eccentricity:    0.0008156
Arg of perigee:   289.1505 deg
Mean anomaly:     070.8794 deg
Mean motion:   14.29527756 rev/day
Decay rate:       -8.0e-08 rev/day^2
Epoch rev:           83620
Checksum:              328

Satellite: GO-32
Catalog number: 25397
Epoch time:      09281.75778388
Element set:       9
Inclination:      098.3225 deg
RA of node:       297.9962 deg
Eccentricity:    0.0000303
Arg of perigee:   305.0183 deg
Mean anomaly:     055.0968 deg
Mean motion:   14.23163999 rev/day
Decay rate:      -1.25e-06 rev/day^2
Epoch rev:           58428
Checksum:              338

Satellite: NO-44
Catalog number: 26931
Epoch time:      09280.92365407
Element set:    0286
Inclination:      067.0505 deg
RA of node:       133.9026 deg
Eccentricity:    0.0006727
Arg of perigee:   273.7557 deg
Mean anomaly:     086.2758 deg
Mean motion:   14.29567935 rev/day
Decay rate:      -1.94e-06 rev/day^2
Epoch rev:           41869
Checksum:              345

Satellite: SO-50
Catalog number: 27607
Epoch time:      09281.82328147
Element set:       3
Inclination:      064.5591 deg
RA of node:       039.9603 deg
Eccentricity:    0.0053604
Arg of perigee:   176.8580 deg
Mean anomaly:     183.2875 deg
Mean motion:   14.71463663 rev/day
Decay rate:       -7.7e-07 rev/day^2
Epoch rev:           36539
Checksum:              325

Satellite: CO-55
Catalog number: 27844
Epoch time:      09280.53928147
Element set:     683
Inclination:      098.7149 deg
RA of node:       288.1302 deg
Eccentricity:    0.0009641
Arg of perigee:   175.3150 deg
Mean anomaly:     184.8117 deg
Mean motion:   14.20659345 rev/day
Decay rate:        5.5e-07 rev/day^2
Epoch rev:           32521
Checksum:              317

